Rawlins, WY

5:23 AM MST on February 20, 2018 (GMT -0700)
Rawlins Municipal

Weather History for KRWL - June, 2013

Change the Weather History Date:

Monday, June 17, 2013

  Actual Average Record
Temperature  
Mean Temperature 63 °F 60 °F  
Max Temperature 84 °F 76 °F 87 °F (1986)
Min Temperature 41 °F 44 °F 33 °F (1993)
Degree Days  
Heating Degree Days 2 6  
Month to date heating degree days 82 141  
Since 1 June heating degree days 82 141  
Since 1 July heating degree days 7981 8344  
Cooling Degree Days 0 1  
Month to date cooling degree days 10 1  
Year to date cooling degree days 11 1  
Since 1 June cooling degree days 10 1  
Growing Degree Days 12 (Base 50)    
Moisture  
Dew Point 27 °F    
Average Humidity 37    
Maximum Humidity 67    
Minimum Humidity 6    
Precipitation  
Precipitation 0.00 in 0.03 in 0.89 in (1998)
Month to date precipitation T 0.66  
Year to date precipitation 2.07 4.58  
Sea Level Pressure  
Sea Level Pressure 29.94 in    
Wind  
Wind Speed 7 mph (North)    
Max Wind Speed 22 mph    
Max Gust Speed 28 mph    
Visibility 10 miles    
Events      
T = Trace of Precipitation, MM = Missing Value Source: NWS Daily Summary

Daily Weather History Graph

Daily Weather History Graph

Search for Another Location

Airport or City:

Trip Planner

Search our weather history database for the weather conditions in past years. The results will help you decide how hot, cold, wet, or windy it might be!

Date:

Astronomy

Jun. 17, 2013 Rise Set
Actual Time 5:33 AM MDT 8:46 PM MDT
Civil Twilight 4:59 AM MDT 9:20 PM MDT
Nautical Twilight 4:14 AM MDT 10:04 PM MDT
Astronomical Twilight 3:21 AM MDT 10:58 PM MDT
Moon 2:23 PM MDT (6/17) 1:15 AM MDT (6/17)
Length of Visible Light 16h 21m
Length of Day
15h 12m
First Quarter, 61% of the Moon is Illuminated
Jun 17
First Quarter
Jun 23
Full
Jun 29
Last Quarter
Jul 8
New
Jul 15
First Quarter

Hourly Weather History & Observations

Time (MDT) Temp. Windchill Dew Point Humidity Pressure Visibility Wind Dir Wind Speed Gust Speed Precip Events Conditions
12:53 AM 53.1 °F - 33.1 °F 47% 29.95 in 10.0 mi WNW 6.9 mph - N/A   Scattered Clouds
1:53 AM 48.9 °F - 30.9 °F 50% 29.97 in 10.0 mi Variable 4.6 mph - N/A   Clear
2:53 AM 45.0 °F 43.5 °F 30.0 °F 56% 29.99 in 10.0 mi NW 3.5 mph - N/A   Clear
3:53 AM 45.0 °F 40.6 °F 30.0 °F 56% 30.02 in 10.0 mi NNW 8.1 mph - N/A   Clear
4:53 AM 45.0 °F 41.8 °F 33.1 °F 63% 29.99 in 10.0 mi North 5.8 mph - N/A   Clear
5:53 AM 42.1 °F 40.2 °F 32.0 °F 67% 30.04 in 10.0 mi NNW 3.5 mph - N/A   Clear
6:53 AM 53.1 °F - 37.0 °F 55% 30.00 in 10.0 mi North 3.5 mph - N/A   Clear
7:53 AM 60.1 °F - 36.0 °F 41% 29.99 in 10.0 mi NE 3.5 mph - N/A   Clear
8:53 AM 62.1 °F - 35.1 °F 37% 30.00 in 10.0 mi ENE 5.8 mph - N/A   Clear
9:53 AM 69.1 °F - 35.1 °F 29% 29.99 in 10.0 mi Variable 5.8 mph - N/A   Clear
10:53 AM 71.1 °F - 34.0 °F 26% 29.98 in 10.0 mi Variable 3.5 mph - N/A   Clear
11:53 AM 75.0 °F - 28.9 °F 18% 29.96 in 10.0 mi WSW 5.8 mph - N/A   Clear
12:53 PM 77.0 °F - 19.0 °F 11% 29.94 in 10.0 mi Calm Calm - N/A   Mostly Cloudy
1:53 PM 78.1 °F - 10.9 °F 8% 29.93 in 10.0 mi South 4.6 mph - N/A   Clear
2:53 PM 80.1 °F - 10.9 °F 7% 29.92 in 10.0 mi Variable 5.8 mph 21.9 mph N/A   Clear
3:53 PM 82.9 °F - 10.0 °F 6% 29.90 in 10.0 mi West 15.0 mph 20.7 mph N/A   Clear
4:53 PM 81.0 °F - 7.0 °F 6% 29.88 in 10.0 mi Calm Calm - N/A   Clear
5:53 PM 79.0 °F - 18.0 °F 10% 29.90 in 10.0 mi WNW 6.9 mph - N/A   Clear
6:53 PM 80.1 °F - 17.1 °F 9% 29.85 in 10.0 mi North 11.5 mph 16.1 mph N/A   Clear
7:53 PM 75.9 °F - 21.9 °F 13% 29.85 in 10.0 mi ENE 8.1 mph - N/A   Clear
8:53 PM 71.1 °F - 23.0 °F 16% 29.86 in 10.0 mi NE 9.2 mph - N/A   Clear
9:53 PM 66.0 °F - 35.1 °F 32% 29.88 in 10.0 mi NE 11.5 mph - N/A   Clear
10:53 PM 64.0 °F - 39.9 °F 41% 29.89 in 10.0 mi ENE 15.0 mph - N/A   Partly Cloudy
11:53 PM 62.1 °F - 41.0 °F 46% 29.88 in 10.0 mi ENE 16.1 mph - N/A   Clear